Regional Weather Roundup
Issued by NWS

Home | Current Version | Previous Version | Text Only | Print | Product List | Glossary Off
Versions: 1 2 3 4 5 6 7 8 9 10 11 12 13 14 15 16 17 18 19 20 21 22 23 24 25 26 27 28 29 30 31 32 33 34 35 36 37 38 39 40 41 42 43 44 45 46 47 48 49 50

000
ASUS45 KPSR 101810
RWRAZ

ARIZONA HOURLY REGIONAL WEATHER ROUNDUP
NATIONAL WEATHER SERVICE PHOENIX AZ
1100 AM MST WED FEB 10 2016

NOTE: FAIR INDICATES FEW OR NO CLOUDS BELOW 12,000 FEET WITH NO
SIGNIFICANT WEATHER AND/OR OBSTRUCTIONS TO VISIBILITY.

AZZ001>003-036-101900-
NORTHWEST ARIZONA

CITY           SKY/WX    TMP DP  RH WIND       PRES   REMARKS
BULLHEAD CITY  MOSUNNY   66  28  24 N16G26    30.29R
KINGMAN        SUNNY     59  22  24 N6        30.35S
6HR MIN TEMP:  34; 6HR MAX TEMP:  59;

$$

AZZ004>008-015-016-018-101900-
NORTH CENTRAL ARIZONA

CITY           SKY/WX    TMP DP  RH WIND       PRES   REMARKS
GRAND CANYON   SUNNY     59   9  13 S3        30.47S
6HR MIN TEMP:  21; 6HR MAX TEMP:  59;

WILLIAMS       SUNNY     59   5  11 VRB5      30.51F
PRESCOTT       SUNNY     57  19  22 CALM      30.41F
6HR MIN TEMP:  29; 6HR MAX TEMP:  57;

FLAGSTAFF      SUNNY     53  10  18 E5        30.48S
6HR MIN TEMP:  19; 6HR MAX TEMP:  54;

PAYSON         SUNNY     63  21  20 VRB5      30.42S
PAGE           SUNNY     44  29  55 N5        30.48S
6HR MIN TEMP:  30; 6HR MAX TEMP:  44;

$$

AZZ009>014-017-101900-
NORTHEAST ARIZONA

CITY           SKY/WX    TMP DP  RH WIND       PRES   REMARKS
WINSLOW        SUNNY     46  23  40 VRB3      30.47F
6HR MIN TEMP:  21; 6HR MAX TEMP:  46;

SAINT JOHNS    SUNNY     46  20  35 CALM      30.46S
6HR MIN TEMP:  17; 6HR MAX TEMP:  46;

WINDOW ROCK    SUNNY     46   0  14 CALM      30.47F
6HR MIN TEMP:  21; 6HR MAX TEMP:  46;

SHOW LOW       SUNNY     48  19  32 CALM      30.48S
$$

AZZ023-101900-
GREATER PHOENIX AREA

CITY           SKY/WX    TMP DP  RH WIND       PRES   REMARKS
PHOENIX        MOSUNNY   75  24  15 E14       30.22S
6HR MIN TEMP:  54; 6HR MAX TEMP:  76;

BUCKEYE        SUNNY     75  21  13 E15       30.25S
GLENDALE       MOSUNNY   70  28  21 CALM      30.25F
LUKE AFB       SUNNY     72  30  21 CALM      30.22F
6HR MIN TEMP:  47; 6HR MAX TEMP:  72;

DEER VALLEY    SUNNY     73  22  14 CALM      30.23F
6HR MIN TEMP:  54; 6HR MAX TEMP:  73;

SCOTTSDALE     SUNNY     72  20  14 SW5       30.25S
6HR MIN TEMP:  50; 6HR MAX TEMP:  72;

MESA-FALCON    SUNNY    N/A N/A N/A N12       30.24S
MESA-GATEWAY   MOSUNNY   70  28  21 CALM      30.25F
CHANDLER       MOSUNNY   68  28  22 VRB5      30.24F
$$

AZZ027-028-101900-
SOUTHWEST MARICOPA COUNTY AND PINAL COUNTY

CITY           SKY/WX    TMP DP  RH WIND       PRES   REMARKS
CASA GRANDE    SUNNY     70  28  21 SE6       30.25S
6HR MIN TEMP:  43; 6HR MAX TEMP:  70;

$$

AZZ503-504-507>509-101900-
SOUTHEAST ARIZONA

CITY           SKY/WX    TMP DP  RH WIND       PRES   REMARKS
TUCSON         SUNNY     73  16  11 SE17      30.28F
6HR MIN TEMP:  44; 6HR MAX TEMP:  73;

DAVIS-MONTHAN  SUNNY     74  19  12 E13       30.26F
6HR MIN TEMP:  52; 6HR MAX TEMP:  74;

RYAN FIELD     SUNNY     73  23  15 E18       30.27S
NOGALES        SUNNY     69  16  13 NW3       30.31F
6HR MIN TEMP:  40; 6HR MAX TEMP:  70;

SIERRA VISTA   SUNNY     64  15  14 E5        30.38S
6HR MIN TEMP:  40; 6HR MAX TEMP:  64;

DOUGLAS        SUNNY     63  19  18 VRB5      30.37S
6HR MIN TEMP:  27; 6HR MAX TEMP:  64;

SAFFORD        SUNNY     64  22  20 SE12      30.36F
6HR MIN TEMP:  37; 6HR MAX TEMP:  64;

$$

AZZ020-021-025-026-031-101900-
SOUTHWEST ARIZONA

CITY           SKY/WX    TMP DP  RH WIND       PRES   REMARKS
YUMA           MOSUNNY   76  31  19 NE7       30.20S
6HR MIN TEMP:  57; 6HR MAX TEMP:  76;

$$

CAZ031-033-041-043-047-048-061-101900-
SOUTHERN CALIFORNIA

CITY           SKY/WX    TMP DP  RH WIND       PRES   REMARKS
DOWNTOWN L.A.  SUNNY     76  29  17 N3        30.16R
6HR MIN TEMP:  61; 6HR MAX TEMP:  76;

L.A. AIRPORT   MOSUNNY   78  28  16 E5        30.16S
6HR MIN TEMP:  61; 6HR MAX TEMP:  78;

SAN DIEGO      PTSUNNY   74  32  21 CALM      30.17R
6HR MIN TEMP:  57; 6HR MAX TEMP:  75;

BURBANK        SUNNY     73  34  23 CALM      30.18R
6HR MIN TEMP:  53; 6HR MAX TEMP:  73;

ONTARIO        PTSUNNY   72  26  18 CALM      30.19R
6HR MIN TEMP:  50; 6HR MAX TEMP:  72;

RIVERSIDE      PTSUNNY   75  32  20 CALM      30.19S
6HR MIN TEMP:  53; 6HR MAX TEMP:  75;

PALM SPRINGS   SUNNY     76  27  16 CALM      30.23S
6HR MIN TEMP:  56; 6HR MAX TEMP:  76;

EL CENTRO NAS  MOSUNNY   72  36  26 W5        30.22S
IMPERIAL       MOSUNNY   75  33  21 W5        30.20R
6HR MIN TEMP:  48; 6HR MAX TEMP:  75;

BLYTHE         MOSUNNY   68  26  20 CALM      30.26R
6HR MIN TEMP:  48; 6HR MAX TEMP:  68;

NEEDLES        MOSUNNY   69  29  22 NE10      30.29R
6HR MIN TEMP:  53; 6HR MAX TEMP:  69;

$$

NVZ020-UTZ003-101900-
SOUTHERN NEVADA-UTAH

CITY           SKY/WX    TMP DP  RH WIND       PRES   REMARKS
LAS VEGAS      MOSUNNY   61  26  26 N3        30.31S
6HR MIN TEMP:  47; 6HR MAX TEMP:  61;

SALT LAKE CITY FOG       30  28  92 W3        30.50R VSB 1/2
6HR MIN TEMP:  28; 6HR MAX TEMP:  30; 6HR PCP: TRACE;

$$

NMZ009-TXZ055-101900-
NEW MEXICO-WEST TEXAS

CITY           SKY/WX    TMP DP  RH WIND       PRES   REMARKS
ALBUQUERQUE    SUNNY     48  18  30 NW7       30.45S
6HR MIN TEMP:  31; 6HR MAX TEMP:  48;

EL PASO        SUNNY     58  19  22 N7        30.40F
6HR MIN TEMP:  36; 6HR MAX TEMP:  58;

$$


........................KEY........................
SKY/WX - SKY CONDITION/WEATHER
TMP    - TEMPERATURE IN FAHRENHEIT
DP     - DEW POINT IN FAHRENHEIT
RH     - RELATIVE HUMIDITY IN PERCENT
WIND   - DIRECTION AND SPEED IN MILES PER HOUR (MPH)
VRB    - VARIABLE WIND DIRECTION
PRES   - MEAN SEA LEVEL PRESSURE IN INCHES OF MERCURY
         F - FALLING PRESSURE   R - RISING PRESSURE
         S - STEADY PRESSURE
VSB    - VISIBILITY IN MILES
HX     - HEAT INDEX IN FAHRENHEIT
WCI    - WIND CHILL INDEX IN FAHRENHEIT
TC     - TEMPERATURE IN CELSIUS WHICH IS ALSO KNOWN AS
         TEMPERATURE IN CENTIGRADE
AFB    - AIR FORCE BASE
         LUKE AFB IS LUKE AIR FORCE BASE
         DAVIS-MONTHAN IS DAVIS-MONTHAN AIR FORCE BASE
NAS    - NAVAL AIR STATION
         EL CENTRO NAS IS EL CENTRO NAVAL AIR STATION
N/A    - NOT AVAILABLE




USA.gov is the U.S. government's official web portal to all federal, state and local government web resources and services.